Regional Weather Roundup
Issued by NWS

Home | Current Version | Previous Version | Text Only | Print | Product List | Glossary On
Versions: 1 2 3 4 5 6 7 8 9 10 11 12 13 14 15 16 17 18 19 20 21 22 23 24 25 26 27 28 29 30 31 32 33 34 35 36 37 38 39 40 41 42 43 44 45 46 47 48 49 50
000
ASUS43 KFSD 111410
RWRSD

WEATHER ROUNDUP FOR SOUTH DAKOTA
NATIONAL WEATHER SERVICE SIOUX FALLS SD
800 AM CST MON DEC 11 2017

NOTE: "FAIR" INDICATES FEW OR NO CLOUDS BELOW 12,000 FEET WITH NO
SIGNIFICANT WEATHER AND/OR OBSTRUCTIONS TO VISIBILITY.


SDZ001>005-009-010-012>017-111500-
NORTHWEST AND NORTH CENTRAL SOUTH DAKOTA

CITY           SKY/WX    TMP DP  RH WIND       PRES   REMARKS
BUFFALO          N/A     38  26  62 NW38G48   30.14R
FAITH            N/A     38  28  67 NW31G43   30.13R
MOBRIDGE       CLOUDY    40  31  70 NW25G37   30.02R
$$

SDZ012>016-024>037-041>051-057-063-072>074-111500-
SOUTHWEST AND SOUTH CENTRAL SOUTH DAKOTA

CITY           SKY/WX    TMP DP  RH WIND       PRES   REMARKS
RAPID CTY ARPT PTCLDY    44  16  32 NW40G52   30.17R
PIERRE         CLOUDY    43  30  60 NW29G39   30.06R
CUSTER         CLOUDY    37   8  30 N18G44    30.16S
ELLSWORTH AFB  MOCLDY    43  17  35 NW32G49   30.17
PHILIP         CLOUDY    42  25  50 NW20G30   30.16R
PINE RIDGE     CLOUDY    38  20  48 W10       30.21R
SPEARFISH      FAIR      39  18  41 NW20G35   30.27R
WINNER         CLOUDY    45  27  49 NW37G44   30.07S
$$

SDZ004>011-016>023-039-040-111500-
NORTHEAST SOUTH DAKOTA

CITY           SKY/WX    TMP DP  RH WIND       PRES   REMARKS
ABERDEEN       CLOUDY    40  34  79 NW28G39   29.94R
WATERTOWN      CLOUDY    36  34  92 NW26G38   29.83R
BROOKINGS      LGT RAIN  36  33  89 NW23G29   29.82R
SISSETON         N/A     36  34  92 NW24G33   29.84R
$$

SDZ017-020-022-023-036>040-048>070-111500-
SOUTHEAST SOUTH DAKOTA

CITY           SKY/WX    TMP DP  RH WIND       PRES   REMARKS
SIOUX FALLS    LGT RAIN  40  32  73 NW30G39   29.85R
HURON          CLOUDY    41  33  73 NW31G43   29.93R
CHAMBERLAIN    CLOUDY    44  31  60 NW26G40   30.03R
MITCHELL       CLOUDY    43  32  65 NW30G41   29.95R
YANKTON        MOCLDY    43  28  55 W31G39    29.94R
$$

ABBREVIATIONS USED IN REMARKS
   TC - TEMPERATURE IN CELSIUS
  WCI - WIND CHILL INDEX
   HX - HEAT INDEX
  VSB - VISIBILITY





USA.gov is the U.S. government's official web portal to all federal, state and local government web resources and services.